CW6391 Weather Reports


Display with metric or nautical units.
time (UTC)temp
F
wind
direction
speed
MPH
gust
MPH
rain 1hr
in
rain 24hr
in
rain mn
in
humidity
%
barometer
mb
20260505130158 76 60 1.0 5.0 0.00 0.01 0.00 32 1005.1
20260505124658 78 119 2.0 5.0 0.00 0.01 0.00 29 1005.1
20260505124205 77 90 2.0 5.0 0.00 0.01 0.00 28 1005.1
20260505123704 80 124 2.0 5.0 0.00 0.01 0.00 26 1005.1
20260505123207 78 126 2.0 6.0 0.00 0.01 0.00 28 1005.1
20260505122658 77 359 2.0 4.0 0.00 0.01 0.00 29 1005.5
20260505122158 78 182 3.0 6.0 0.00 0.01 0.00 30 1005.5
20260505121704 78 103 2.0 6.0 0.00 0.01 0.00 30 1005.5
20260505121201 76 344 1.0 6.0 0.00 0.01 0.00 30 1005.5
20260505120701 76 305 1.0 5.0 0.00 0.01 0.00 31 1005.5
20260505120158 78 333 1.0 5.0 0.00 0.01 0.00 30 1005.5
20260505115658 80 255 1.0 5.0 0.00 0.01 0.00 31 1005.8
20260505115158 78 258 1.0 5.0 0.00 0.01 0.00 32 1005.8
20260505114658 78 173 2.0 7.0 0.00 0.01 0.00 31 1005.8
20260505114159 77 133 2.0 8.0 0.00 0.01 0.00 32 1005.8
20260505113704 77 329 3.0 7.0 0.00 0.01 0.00 31 1005.8
20260505113201 79 229 2.0 5.0 0.00 0.01 0.00 30 1005.8
20260505112704 78 212 2.0 8.0 0.00 0.01 0.00 32 1005.8
20260505112204 78 266 2.0 6.0 0.00 0.01 0.00 31 1005.8
20260505111658 77 235 1.0 5.0 0.00 0.01 0.00 32 1005.8
20260505111201 77 293 2.0 6.0 0.00 0.01 0.00 32 1005.8
20260505110658 77 245 1.0 5.0 0.00 0.01 0.00 34 1006.2
20260505110201 76 278 1.0 5.0 0.00 0.01 0.00 33 1006.2
20260505102201 76 244 2.0 7.0 0.00 0.01 0.00 38 1006.6
20260505101707 75 292 2.0 9.0 0.00 0.01 0.00 39 1006.6
20260505101158 76 247 2.0 5.0 0.00 0.01 0.00 38 1006.6
20260505100704 75 228 1.0 9.0 0.00 0.01 0.00 42 1006.9
20260505100201 75 269 3.0 8.0 0.00 0.01 0.00 40 1006.9
20260505095704 74 317 4.0 7.0 0.00 0.01 0.00 39 1006.9
20260505095158 77 262 1.0 4.0 0.00 0.01 0.00 38 1006.9
20260505094704 76 162 1.0 7.0 0.00 0.01 0.00 39 1006.9
20260505094158 75 211 1.0 5.0 0.00 0.01 0.00 40 1006.9
20260505093701 75 260 2.0 5.0 0.00 0.01 0.00 40 1006.9
20260505093158 76 242 2.0 5.0 0.00 0.01 0.00 40 1007.2
20260505092658 73 282 0.0 6.0 0.00 0.01 0.00 44 1007.2
20260505092207 74 244 1.0 6.0 0.00 0.01 0.00 43 1007.2
20260505091701 73 293 2.0 6.0 0.00 0.01 0.00 43 1007.2
20260505091204 73 237 1.0 4.0 0.00 0.01 0.00 43 1007.2
20260505090658 73 253 1.0 6.0 0.00 0.01 0.00 43 1007.2
20260505090204 74 268 3.0 6.0 0.00 0.01 0.00 42 1007.6
20260505085701 73 178 0.0 3.0 0.00 0.01 0.00 43 1007.6
20260505085201 73 287 1.0 4.0 0.00 0.01 0.00 42 1007.6
20260505084701 74 303 1.0 6.0 0.00 0.01 0.00 42 1007.6
20260505084158 74 25 1.0 3.0 0.00 0.01 0.00 42 1007.6
20260505083701 73 339 1.0 3.0 0.00 0.01 0.00 44 1007.6
20260505083201 71 67 0.0 3.0 0.00 0.01 0.00 45 1007.6
20260505082658 69 134 0.0 3.0 0.00 0.01 0.00 48 1007.6
20260505082158 70 319 1.0 2.0 0.00 0.01 0.00 47 1007.6
20260505081704 70 221 0.0 4.0 0.00 0.01 0.00 47 1007.6
20260505081159 70 324 2.0 4.0 0.00 0.01 0.00 47 1007.6
20260505080701 69 287 1.0 4.0 0.00 0.01 0.00 48 1007.9
20260505080158 69 346 1.0 2.0 0.00 0.01 0.00 50 1007.9
20260505075701 69 29 1.0 4.0 0.00 0.01 0.00 47 1007.9
20260505075158 69 297 1.0 3.0 0.00 0.01 0.00 49 1007.9
20260505074701 69 335 1.0 3.0 0.00 0.01 0.00 50 1007.9
20260505074200 68 171 0.0 2.0 0.00 0.01 0.00 51 1007.9
20260505073703 67 24 0.0 3.0 0.00 0.01 0.00 52 1007.9
20260505073201 67 132 1.0 3.0 0.00 0.01 0.00 51 1007.9
20260505072658 67 140 2.0 3.0 0.00 0.01 0.00 52 1008.3
20260505072201 67 21 1.0 3.0 0.00 0.01 0.00 54 1008.3
20260505071658 66 118 0.0 3.0 0.00 0.01 0.00 57 1008.3
20260505071158 64 167 1.0 3.0 0.00 0.01 0.00 59 1008.3
20260505070658 64 338 2.0 3.0 0.00 0.01 0.00 59 1008.3
20260505070158 63 14 0.0 3.0 0.00 0.01 0.00 61 1008.3
20260505065701 64 220 0.0 3.0 0.00 0.01 0.00 61 1008.3
20260505065158 63 343 1.0 3.0 0.00 0.01 0.00 62 1008.3
20260505064701 63 352 0.0 3.0 0.00 0.01 0.00 64 1008.3
20260505064158 61 341 1.0 3.0 0.00 0.01 0.00 65 1008.3
20260505063704 61 347 1.0 3.0 0.00 0.01 0.00 65 1008.3
20260505063158 61 17 1.0 4.0 0.00 0.01 0.00 66 1008.3
20260505062659 62 305 0.0 2.0 0.00 0.01 0.00 65 1008.3
20260505062201 61 333 1.0 3.0 0.00 0.01 0.00 66 1008.3
20260505061658 61 38 1.0 3.0 0.00 0.01 0.00 66 1008.3
20260505061158 61 3 1.0 3.0 0.00 0.01 0.00 66 1008.3
20260505060701 61 358 1.0 4.0 0.00 0.01 0.00 66 1008.3
20260505060201 61 12 1.0 3.0 0.00 0.01 0.00 66 1008.3
20260505055658 61 236 1.0 2.0 0.00 0.01 0.00 68 1008.3
20260505055204 60 54 0.0 2.0 0.00 0.01 0.00 68 1008.3
20260505054658 60 303 0.0 2.0 0.00 0.01 0.00 69 1008.3
20260505054201 60 217 0.0 1.0 0.00 0.01 0.00 69 1008.3
20260505053658 60 265 0.0 3.0 0.00 0.01 0.00 70 1008.3
20260505053207 60 300 1.0 3.0 0.00 0.01 0.00 70 1008.3
20260505052658 59 197 1.0 2.0 0.00 0.01 0.00 74 1008.3
20260505052201 58 322 0.0 3.0 0.00 0.01 0.00 76 1008.3
20260505051657 57 323 2.0 4.0 0.00 0.01 0.00 76 1008.3
20260505051158 57 324 2.0 4.0 0.00 0.01 0.00 77 1008.3
20260505050707 57 306 1.0 3.0 0.00 0.01 0.00 77 1008.3
20260505050201 57 285 0.0 3.0 0.00 0.01 0.00 78 1008.3
20260505041701 57 291 2.0 6.0 0.00 0.01 0.00 77 1008.3
20260505041204 58 312 1.0 6.0 0.00 0.01 0.00 77 1008.3
20260505040658 58 327 2.0 8.0 0.00 0.01 0.00 77 1008.3
20260505040207 58 334 1.0 4.0 0.00 0.01 0.00 77 1008.7
20260505035658 58 317 2.0 4.0 0.00 0.01 0.00 77 1008.7
20260505035158 58 307 2.0 6.0 0.00 0.01 0.00 77 1008.7
20260505034700 58 313 2.0 5.0 0.00 0.01 0.00 76 1008.7
20260505034158 58 315 2.0 4.0 0.00 0.01 0.00 76 1008.7
20260505033704 58 309 2.0 5.0 0.00 0.01 0.00 75 1008.7
20260505033158 58 308 2.0 5.0 0.00 0.01 0.00 75 1008.7
20260505032701 58 327 2.0 5.0 0.00 0.01 0.00 75 1008.7
20260505032158 58 324 1.0 4.0 0.00 0.01 0.00 76 1008.7
20260505031706 58 336 1.0 3.0 0.00 0.01 0.00 77 1008.7
20260505031158 58 254 0.0 3.0 0.00 0.01 0.00 77 1008.7
20260505030658 58 288 2.0 3.0 0.00 0.01 0.00 77 1008.7
20260505030157 58 322 1.0 3.0 0.00 0.01 0.00 78 1008.7
20260505025704 58 319 1.0 3.0 0.00 0.01 0.00 77 1008.7
20260505025201 58 333 1.0 3.0 0.00 0.01 0.00 77 1009.0
20260505024701 58 252 0.0 3.0 0.00 0.01 0.00 78 1009.0
20260505024158 58 241 2.0 4.0 0.00 0.01 0.00 77 1009.0
20260505023701 58 213 0.0 3.0 0.00 0.01 0.00 77 1009.0
20260505023158 58 294 0.0 3.0 0.00 0.01 0.00 77 1009.0
20260505022707 58 261 1.0 3.0 0.00 0.01 0.00 77 1009.0
20260505022158 58 324 2.0 6.0 0.00 0.01 0.00 76 1009.3
20260505021658 58 316 2.0 5.0 0.00 0.01 0.00 76 1009.3
20260505021158 58 313 2.0 5.0 0.00 0.01 0.00 76 1009.3
20260505020701 59 296 2.0 7.0 0.00 0.01 0.00 75 1009.7
20260505020158 59 314 2.0 6.0 0.00 0.01 0.00 74 1009.7
20260505015658 59 312 2.0 6.0 0.01 0.01 0.00 74 1009.7
20260505015204 59 312 2.0 5.0 0.01 0.01 0.00 74 1009.7
20260505014704 59 315 1.0 5.0 0.01 0.01 0.00 74 1009.7
20260505014201 59 308 2.0 5.0 0.01 0.01 0.00 73 1009.7
20260505013701 59 260 1.0 4.0 0.01 0.01 0.00 73 1009.7
20260505013158 60 303 1.0 6.0 0.01 0.01 0.00 72 1009.7
20260505012657 60 299 2.0 5.0 0.01 0.01 0.00 71 1009.7
20260505012158 60 322 1.0 3.0 0.01 0.01 0.00 71 1009.7
20260505011658 60 286 1.0 3.0 0.01 0.01 0.00 70 1009.7
20260505011158 61 310 1.0 4.0 0.00 0.00 0.00 69 1009.7
20260505010704 61 323 2.0 5.0 0.00 0.00 0.00 67 1009.7
20260505010158 61 314 0.0 4.0 0.00 0.00 0.00 66 1009.7
20260505005701 62 310 1.0 5.0 0.00 0.00 0.00 65 1009.7
20260505005158 62 303 1.0 2.0 0.00 0.00 0.00 64 1009.7
20260505004701 62 292 1.0 4.0 0.00 0.00 0.00 62 1009.7
20260505004204 62 300 2.0 5.0 0.00 0.00 0.00 61 1009.7
20260505003704 62 322 1.0 6.0 0.00 0.00 0.00 61 1009.7
20260505003158 62 310 3.0 5.0 0.00 0.00 0.00 61 1009.7
20260505002704 62 287 1.0 4.0 0.00 0.00 0.00 61 1009.7
20260505002201 62 302 2.0 4.0 0.00 0.00 0.00 61 1009.7
20260505001658 62 311 1.0 7.0 0.00 0.00 0.00 61 1009.7
20260505001157 62 319 1.0 4.0 0.00 0.00 0.00 61 1010.0
20260505000704 62 303 1.0 4.0 0.00 0.00 0.00 61 1010.0
20260505000204 62 312 1.0 3.0 0.00 0.00 0.00 61 1010.0
20260504235701 62 291 1.0 5.0 0.00 0.00 0.00 61 1010.0
20260504235158 62 281 2.0 5.0 0.00 0.00 0.00 61 1010.0
20260504234701 62 319 1.0 5.0 0.00 0.00 0.00 61 1010.0
20260504234204 62 317 2.0 4.0 0.00 0.00 0.00 61 1010.0
20260504233658 62 307 2.0 4.0 0.00 0.00 0.00 61 1010.0
20260504233158 61 268 1.0 3.0 0.00 0.00 0.00 61 1010.0
20260504232658 61 283 2.0 4.0 0.00 0.00 0.00 61 1010.0
20260504232204 61 261 1.0 5.0 0.00 0.00 0.00 61 1010.4
20260504231704 61 277 2.0 5.0 0.00 0.00 0.00 61 1010.4
20260504231158 61 296 1.0 4.0 0.00 0.00 0.00 61 1010.4
20260504230658 61 303 1.0 4.0 0.00 0.00 0.00 60 1010.4
20260504230158 61 315 2.0 5.0 0.00 0.00 0.00 60 1010.4
20260504225658 61 309 2.0 5.0 0.00 0.00 0.00 60 1010.4
20260504225158 62 317 2.0 6.0 0.00 0.00 0.00 60 1010.4
20260504224658 62 304 1.0 3.0 0.00 0.00 0.00 60 1010.4
20260504224204 62 335 1.0 3.0 0.00 0.00 0.00 60 1010.4
20260504223701 62 314 1.0 5.0 0.00 0.00 0.00 60 1010.4
20260504223204 62 308 2.0 4.0 0.00 0.00 0.00 60 1010.4
20260504222658 62 320 2.0 5.0 0.00 0.00 0.00 60 1010.4
20260504222201 62 318 3.0 5.0 0.00 0.00 0.00 59 1010.8
20260504221658 62 317 2.0 5.0 0.00 0.00 0.00 59 1010.8
20260504221158 62 306 2.0 5.0 0.00 0.00 0.00 58 1010.8
20260504220701 63 326 2.0 5.0 0.00 0.00 0.00 57 1010.8
20260504220158 63 311 2.0 5.0 0.00 0.00 0.00 57 1010.8
20260504215701 63 292 1.0 4.0 0.00 0.00 0.00 56 1010.8
20260504215157 63 272 1.0 3.0 0.00 0.00 0.00 55 1010.8
20260504214701 63 271 1.0 3.0 0.00 0.00 0.00 55 1010.8
20260504214204 64 297 0.0 3.0 0.00 0.00 0.00 55 1010.8
20260504213658 64 265 0.0 2.0 0.00 0.00 0.00 55 1010.8
20260504213157 64 302 1.0 3.0 0.00 0.00 0.00 55 1010.8
20260504212703 64 294 0.0 2.0 0.00 0.00 0.00 54 1010.8
20260504212157 64 334 1.0 2.0 0.00 0.00 0.00 54 1010.8
20260504211658 64 314 0.0 2.0 0.00 0.00 0.00 54 1010.8
20260504211157 64 327 1.0 2.0 0.00 0.00 0.00 54 1010.8
20260504210704 64 275 0.0 2.0 0.00 0.00 0.00 53 1010.8
20260504210158 64 269 1.0 2.0 0.00 0.00 0.00 53 1010.8
20260504205704 64 290 0.0 2.0 0.00 0.00 0.00 53 1010.8
20260504205201 64 315 0.0 2.0 0.00 0.00 0.00 52 1010.8
20260504204657 65 289 0.0 2.0 0.00 0.00 0.00 52 1010.8
20260504204204 65 247 0.0 3.0 0.00 0.00 0.00 52 1010.8
20260504203701 65 275 1.0 2.0 0.00 0.00 0.00 51 1010.8
20260504203200 65 264 1.0 2.0 0.00 0.00 0.00 50 1010.8
20260504202658 65 301 0.0 2.0 0.00 0.00 0.00 50 1010.8
20260504202158 65 266 0.0 3.0 0.00 0.00 0.00 49 1010.8
20260504201657 66 315 0.0 2.0 0.00 0.00 0.00 49 1010.8
20260504201200 66 310 1.0 3.0 0.00 0.00 0.00 48 1010.8
20260504200701 66 332 1.0 2.0 0.00 0.00 0.00 48 1010.8
20260504200158 66 310 1.0 2.0 0.00 0.00 0.00 48 1011.1
20260504195704 67 295 1.0 2.0 0.00 0.00 0.00 47 1011.1
20260504195207 67 256 0.0 2.0 0.00 0.00 0.00 47 1011.1
20260504194658 67 296 0.0 1.0 0.00 0.00 0.00 46 1011.1
20260504194200 67 244 0.0 2.0 0.00 0.00 0.00 45 1011.1
20260504193657 68 273 1.0 2.0 0.00 0.00 0.00 44 1011.1
20260504193204 68 257 0.0 1.0 0.00 0.00 0.00 44 1011.1
20260504192704 68 325 0.0 2.0 0.00 0.00 0.00 43 1011.1
20260504192201 68 290 0.0 1.0 0.00 0.00 0.00 43 1011.1
20260504191658 68 294 0.0 1.0 0.00 0.00 0.00 43 1011.1
20260504191201 68 240 0.0 2.0 0.00 0.00 0.00 42 1010.8
20260504190701 69 244 0.0 1.0 0.00 0.00 0.00 42 1010.8
20260504190201 69 220 0.0 2.0 0.00 0.00 0.00 42 1010.8
20260504185658 69 252 1.0 1.0 0.00 0.00 0.00 42 1010.8
20260504185158 69 263 0.0 2.0 0.00 0.00 0.00 41 1010.8
20260504184657 69 311 1.0 2.0 0.00 0.00 0.00 40 1010.8
20260504184157 69 300 0.0 2.0 0.00 0.00 0.00 40 1010.8
20260504183657 69 330 1.0 2.0 0.00 0.00 0.00 40 1010.8
20260504183201 69 336 1.0 2.0 0.00 0.00 0.00 40 1010.8
20260504182704 70 295 0.0 2.0 0.00 0.00 0.00 40 1010.8
20260504182207 70 306 0.0 2.0 0.00 0.00 0.00 39 1010.8
20260504181701 70 313 0.0 2.0 0.00 0.00 0.00 39 1011.1
20260504181158 71 319 1.0 3.0 0.00 0.00 0.00 38 1011.1
20260504180701 71 297 0.0 2.0 0.00 0.00 0.00 38 1011.1
20260504180158 71 265 0.0 2.0 0.00 0.00 0.00 38 1011.1
20260504175704 71 243 1.0 5.0 0.00 0.00 0.00 38 1011.1
20260504175201 71 305 1.0 5.0 0.00 0.00 0.00 37 1010.8
20260504174707 71 304 1.0 5.0 0.00 0.00 0.00 37 1010.8
20260504174158 71 312 2.0 5.0 0.00 0.00 0.00 37 1010.8
20260504173701 71 317 1.0 4.0 0.00 0.00 0.00 36 1010.8
20260504173158 72 325 2.0 4.0 0.00 0.00 0.00 36 1011.1
20260504172657 72 279 1.0 4.0 0.00 0.00 0.00 36 1011.1
20260504172158 71 309 1.0 4.0 0.00 0.00 0.00 36 1011.1
20260504171700 72 312 1.0 4.0 0.00 0.00 0.00 36 1011.1
20260504171158 72 301 0.0 4.0 0.00 0.00 0.00 35 1010.8
20260504170658 72 322 2.0 4.0 0.00 0.00 0.00 35 1010.8
20260504170158 72 338 2.0 5.0 0.00 0.00 0.00 35 1010.8
20260504160158 75 304 3.0 6.0 0.00 0.00 0.00 31 1011.1
20260504150701 77 329 2.0 4.0 0.00 0.00 0.00 28 1011.4
20260504150158 78 229 1.0 3.0 0.00 0.00 0.00 27 1011.4
20260504141201 78 317 3.0 6.0 0.00 0.00 0.00 27 1011.4
20260504140704 78 191 0.0 5.0 0.00 0.00 0.00 28 1011.4
20260504140201 76 300 2.0 5.0 0.00 0.00 0.00 29 1011.4